Weather History for Richmond Hanover County, VA

Change the Weather History Date:

Sunday, December 23, 2012

  Actual Average Record
Temperature  
Mean Temperature 37 °F -  
Max Temperature 51 °F 47 °F 71 °F (1990)
Min Temperature 23 °F 26 °F 1 °F (1989)
Degree Days  
Heating Degree Days 28    
Moisture  
Dew Point 21 °F    
Average Humidity 55    
Maximum Humidity 96    
Minimum Humidity 29    
Precipitation  
Precipitation 0.00 in - - ()
Sea Level Pressure  
Sea Level Pressure 30.03 in    
Wind  
Wind Speed 3 mph (SSW)    
Max Wind Speed 10 mph    
Max Gust Speed -    
Visibility 10 miles    
Events      
Averages and records for this station are not official NWS values.
T = Trace of Precipitation, MM = Missing Value Source: NWS Daily Summary

Daily Weather History Graph

Daily Weather History Graph

Search for Another Location

Airport:

Trip Planner

Search our weather history database for the weather conditions in past years. The results will help you decide how hot, cold, wet, or windy it might be!

Date:

Astronomy

Dec. 23, 2012 Rise Set
Actual Time 7:22 AM EST 4:55 PM EST
Civil Twilight 6:53 AM EST 5:25 PM EST
Nautical Twilight 6:20 AM EST 5:58 PM EST
Astronomical Twilight 5:48 AM EST 6:30 PM EST
Moon 1:43 PM EST (12/23) 3:05 AM EST (12/23)
Length of Visible Light 10h 32m
Length of Day
9h 33m
Waxing Gibbous, 81% of the Moon is Illuminated
Dec 23
Waxing Gibbous
Dec 28
Full
Jan 4
Last Quarter
Jan 11
New
Jan 18
First Quarter

Hourly Weather History & Observations

Time (EST) Temp. Windchill Dew Point Humidity Pressure Visibility Wind Dir Wind Speed Gust Speed Precip Events Conditions
12:54 AM 27.0 °F - 24.1 °F 89% 30.08 in 10.0 mi Calm Calm - N/A   Clear
1:54 AM 26.1 °F - 24.1 °F 92% 30.08 in 10.0 mi Calm Calm - N/A   Clear
2:54 AM 26.1 °F - 23.0 °F 88% 30.09 in 10.0 mi Calm Calm - N/A   Clear
3:54 AM 26.1 °F - 23.0 °F 88% 30.09 in 10.0 mi Calm Calm - N/A   Clear
4:54 AM 25.0 °F - 21.9 °F 88% 30.09 in 10.0 mi Calm Calm - N/A   Clear
5:54 AM 24.1 °F - 23.0 °F 96% 30.09 in 10.0 mi Calm Calm - N/A   Clear
6:54 AM 24.1 °F - 21.9 °F 91% 30.11 in 10.0 mi Calm Calm - N/A   Clear
7:54 AM 23.0 °F - 21.9 °F 96% 30.11 in 10.0 mi Calm Calm - N/A   Clear
8:54 AM 30.9 °F 27.5 °F 21.0 °F 67% 30.11 in 10.0 mi South 3.5 mph - N/A   Clear
9:54 AM 37.0 °F 33.3 °F 21.0 °F 52% 30.10 in 10.0 mi South 4.6 mph - N/A   Clear
10:54 AM 42.1 °F 38.4 °F 18.0 °F 38% 30.08 in 10.0 mi SSW 5.8 mph - N/A   Clear
11:54 AM 45.0 °F 42.6 °F 18.0 °F 34% 30.04 in 10.0 mi Variable 4.6 mph - N/A   Clear
12:54 PM 48.9 °F - 18.0 °F 29% 30.00 in 10.0 mi SSW 10.4 mph - N/A   Clear
1:54 PM 51.1 °F - 21.0 °F 31% 29.98 in 10.0 mi SW 6.9 mph - N/A   Clear
2:54 PM 51.1 °F - 21.0 °F 31% 29.97 in 10.0 mi SW 8.1 mph - N/A   Clear
3:54 PM 51.1 °F - 21.0 °F 31% 29.96 in 10.0 mi SW 5.8 mph - N/A   Clear
4:54 PM 50.0 °F - 21.9 °F 33% 29.96 in 10.0 mi SSW 6.9 mph - N/A   Clear
5:54 PM 50.0 °F - 21.0 °F 32% 29.96 in 10.0 mi SSW 6.9 mph - N/A   Clear
6:54 PM 48.9 °F - 21.0 °F 33% 29.97 in 10.0 mi SW 8.1 mph - N/A   Clear
7:54 PM 50.0 °F - 19.0 °F 29% 29.97 in 10.0 mi SW 9.2 mph - N/A   Clear
8:54 PM 48.0 °F - 19.0 °F 32% 29.99 in 10.0 mi SW 6.9 mph - N/A   Clear
9:54 PM 48.0 °F - 21.0 °F 34% 30.00 in 10.0 mi SW 8.1 mph - N/A   Clear
10:54 PM 46.0 °F 43.1 °F 21.0 °F 37% 30.01 in 10.0 mi SW 5.8 mph - N/A   Clear
11:54 PM 44.1 °F - 21.0 °F 40% 30.00 in 10.0 mi Calm Calm - N/A   Clear